User: anonymous   Login
Location: Caltech
(34.1382°N, 118.1253°W)
Time: 13:46:38
(UTC-07:00)
Language:

Oscar 19 - Orbit

View from above orbital plane
View from above orbital plane
View from above satellite
View from above satellite

Ground track
Ground track

The orbit data is extracted from the following two-line orbital elements,

1 20442U 90005G   15108.07407452  .00000256  00000-0  11000-3 0  9998
2 20442 098.5082 044.9023 0011236 331.9859 028.0719 14.32717182318330
Epoch (UTC): 18 April 2015 01:46:40
Eccentricity: 0.0011236
inclination: 98.5082°
perigee height: 774 km
apogee height: 791 km
right ascension of ascending node: 44.9023°
argument of perigee: 331.9859°
revolutions per day: 14.32717182
mean anomaly at epoch: 28.0719°
orbit number at epoch: 31833

The dashed part of the orbit path shows where the satellite is in the earth's shadow,  

DLR